Time,TemperatureF,DewpointF,PressureIn,WindDirection,WindDirectionDegrees,WindSpeedMPH,WindSpeedGustMPH,Humidity,HourlyPrecipIn,Conditions,Clouds,dailyrainin,SoftwareType,DateUTC
2013-02-06 00:01:00,23.0,16.0,30.04,NW,310,4.0,8.0,73,0.00,,,0.00,,2013-02-06 06:01:00,
2013-02-06 00:11:00,23.0,16.0,30.04,NW,310,4.0,8.0,73,0.00,,,0.00,,2013-02-06 06:11:00,
2013-02-06 00:21:00,23.0,16.0,30.06,NW,305,2.0,4.0,73,0.00,,,0.00,,2013-02-06 06:21:00,
2013-02-06 00:32:00,22.0,15.0,30.07,NW,308,2.0,4.0,73,0.00,,,0.00,,2013-02-06 06:32:00,
2013-02-06 00:42:00,22.0,15.0,30.07,NW,308,2.0,4.0,73,0.00,,,0.00,,2013-02-06 06:42:00,
2013-02-06 00:52:00,21.0,14.0,30.07,NW,321,1.0,4.0,74,0.00,,,0.00,,2013-02-06 06:52:00,
2013-02-06 01:01:00,20.0,13.0,30.08,West,273,0.0,2.0,74,0.00,,,0.00,,2013-02-06 07:01:00,
2013-02-06 01:11:00,20.0,13.0,30.08,West,273,0.0,2.0,74,0.00,,,0.00,,2013-02-06 07:11:00,
2013-02-06 01:21:00,20.0,14.0,30.08,West,270,1.0,2.0,76,0.00,,,0.00,,2013-02-06 07:21:00,
2013-02-06 01:32:00,20.0,14.0,30.09,WSW,258,0.0,2.0,76,0.00,,,0.00,,2013-02-06 07:32:00,
2013-02-06 01:41:00,20.0,14.0,30.09,WSW,258,0.0,2.0,76,0.00,,,0.00,,2013-02-06 07:41:00,
2013-02-06 01:51:00,18.0,12.0,30.09,WNW,287,1.0,2.0,76,0.00,,,0.00,,2013-02-06 07:51:00,
2013-02-06 02:01:00,17.0,11.0,30.09,NNE,30,0.0,2.0,76,0.00,,,0.00,,2013-02-06 08:01:00,
2013-02-06 02:11:00,17.0,11.0,30.09,NNE,30,0.0,2.0,76,0.00,,,0.00,,2013-02-06 08:11:00,
2013-02-06 02:21:00,17.0,11.0,30.09,NNE,30,0.0,2.0,76,0.00,,,0.00,,2013-02-06 08:21:00,
2013-02-06 02:31:00,13.0,8.0,30.11,SW,219,0.0,2.0,81,0.00,,,0.00,,2013-02-06 08:31:00,
2013-02-06 02:41:00,13.0,8.0,30.11,SW,219,0.0,2.0,81,0.00,,,0.00,,2013-02-06 08:41:00,
2013-02-06 02:53:00,13.0,9.0,30.10,WNW,288,0.0,2.0,82,0.00,,,0.00,,2013-02-06 08:53:00,
2013-02-06 03:01:00,11.0,7.0,30.10,North,1,0.0,2.0,84,0.00,,,0.00,,2013-02-06 09:01:00,
2013-02-06 03:11:00,11.0,7.0,30.10,North,1,0.0,2.0,84,0.00,,,0.00,,2013-02-06 09:11:00,
2013-02-06 03:21:00,10.0,6.0,30.11,NW,315,0.0,1.0,84,0.00,,,0.00,,2013-02-06 09:21:00,
2013-02-06 03:31:00,9.0,5.0,30.11,North,351,0.0,2.0,85,0.00,,,0.00,,2013-02-06 09:31:00,
2013-02-06 03:41:00,9.0,5.0,30.11,North,351,0.0,2.0,85,0.00,,,0.00,,2013-02-06 09:41:00,
2013-02-06 03:52:00,8.0,5.0,30.10,North,357,0.0,1.0,86,0.00,,,0.00,,2013-02-06 09:52:00,
2013-02-06 04:01:00,6.0,3.0,30.12,NW,314,0.0,2.0,86,0.00,,,0.00,,2013-02-06 10:01:00,
2013-02-06 04:11:00,6.0,3.0,30.12,NW,314,0.0,2.0,86,0.00,,,0.00,,2013-02-06 10:11:00,
2013-02-06 04:21:00,6.0,3.0,30.12,NW,317,0.0,2.0,87,0.00,,,0.00,,2013-02-06 10:21:00,
2013-02-06 04:31:00,6.0,3.0,30.12,North,349,0.0,2.0,87,0.00,,,0.00,,2013-02-06 10:31:00,
2013-02-06 04:42:00,6.0,3.0,30.12,North,349,0.0,2.0,87,0.00,,,0.00,,2013-02-06 10:42:00,
2013-02-06 04:51:00,4.0,1.0,30.12,NNW,348,0.0,2.0,87,0.00,,,0.00,,2013-02-06 10:51:00,
2013-02-06 05:11:00,4.0,1.0,30.12,NNW,348,0.0,2.0,87,0.00,,,0.00,,2013-02-06 11:11:00,
2013-02-06 05:22:00,4.0,1.0,30.14,SW,225,0.0,1.0,87,0.00,,,0.00,,2013-02-06 11:22:00,
2013-02-06 05:32:00,3.0,0.0,30.14,North,354,0.0,1.0,87,0.00,,,0.00,,2013-02-06 11:32:00,
2013-02-06 05:42:00,3.0,0.0,30.14,North,354,0.0,1.0,87,0.00,,,0.00,,2013-02-06 11:42:00,
2013-02-06 05:53:00,3.0,0.0,30.14,North,354,0.0,1.0,87,0.00,,,0.00,,2013-02-06 11:53:00,
2013-02-06 06:01:00,2.0,-1.0,30.13,NNE,12,0.0,1.0,87,0.00,,,0.00,,2013-02-06 12:01:00,
2013-02-06 06:22:00,2.0,-1.0,30.14,North,1,0.0,1.0,87,0.00,,,0.00,,2013-02-06 12:22:00,
2013-02-06 06:32:00,1.0,-2.0,30.14,NW,314,0.0,1.0,87,0.00,,,0.00,,2013-02-06 12:32:00,
2013-02-06 06:52:00,1.0,-2.0,30.14,North,1,0.0,1.0,87,0.00,,,0.00,,2013-02-06 12:52:00,
2013-02-06 07:01:00,0.0,-3.0,30.14,North,0,0.0,0.0,86,0.00,,,0.00,,2013-02-06 13:01:00,
2013-02-06 07:31:00,1.0,-2.0,30.14,NW,326,0.0,1.0,87,0.00,,,0.00,,2013-02-06 13:31:00,
2013-02-06 07:42:00,1.0,-2.0,30.14,NW,326,0.0,1.0,87,0.00,,,0.00,,2013-02-06 13:42:00,
2013-02-06 07:52:00,2.0,-1.0,30.16,West,279,0.0,1.0,87,0.00,,,0.00,,2013-02-06 13:52:00,
2013-02-06 08:02:00,3.0,0.0,30.15,North,0,0.0,0.0,87,0.00,,,0.00,,2013-02-06 14:02:00,
2013-02-06 08:11:00,3.0,0.0,30.15,North,0,0.0,0.0,87,0.00,,,0.00,,2013-02-06 14:11:00,
2013-02-06 08:21:00,3.0,0.0,30.15,North,0,0.0,0.0,87,0.00,,,0.00,,2013-02-06 14:21:00,
2013-02-06 08:32:00,3.0,0.0,30.15,North,0,0.0,0.0,87,0.00,,,0.00,,2013-02-06 14:32:00,
2013-02-06 08:41:00,10.0,7.0,30.18,NNE,12,0.0,1.0,86,0.00,,,0.00,,2013-02-06 14:41:00,
2013-02-06 08:52:00,10.0,7.0,30.18,NNE,12,0.0,1.0,86,0.00,,,0.00,,2013-02-06 14:52:00,
2013-02-06 09:02:00,11.0,7.0,30.18,North,0,0.0,0.0,85,0.00,,,0.00,,2013-02-06 15:02:00,
2013-02-06 09:11:00,13.0,9.0,30.19,North,0,0.0,0.0,84,0.00,,,0.00,,2013-02-06 15:11:00,
2013-02-06 09:21:00,13.0,9.0,30.19,North,0,0.0,0.0,84,0.00,,,0.00,,2013-02-06 15:21:00,
2013-02-06 09:31:00,20.0,15.0,30.19,NE,43,0.0,1.0,82,0.00,,,0.00,,2013-02-06 15:31:00,
2013-02-06 09:52:00,20.0,13.0,30.19,ENE,71,0.0,2.0,74,0.00,,,0.00,,2013-02-06 15:52:00,
2013-02-06 10:01:00,24.0,17.0,30.18,ENE,59,0.0,2.0,73,0.00,,,0.00,,2013-02-06 16:01:00,
2013-02-06 10:32:00,29.0,19.0,30.19,East,90,0.0,2.0,65,0.00,,,0.00,,2013-02-06 16:32:00,
2013-02-06 10:52:00,32.0,19.0,30.20,South,191,1.0,2.0,59,0.00,,,0.00,,2013-02-06 16:52:00,
2013-02-06 11:02:00,33.0,19.0,30.20,South,181,0.0,2.0,57,0.00,,,0.00,,2013-02-06 17:02:00,
2013-02-06 11:21:00,28.0,16.0,30.19,SSE,165,5.0,8.0,59,0.00,,,0.00,,2013-02-06 17:21:00,
2013-02-06 11:32:00,30.0,17.0,30.19,SSE,155,2.0,7.0,59,0.00,,,0.00,,2013-02-06 17:32:00,
2013-02-06 11:41:00,31.0,18.0,30.18,SSE,151,4.0,7.0,57,0.00,,,0.00,,2013-02-06 17:41:00,
2013-02-06 11:52:00,31.0,18.0,30.18,SSE,151,4.0,7.0,57,0.00,,,0.00,,2013-02-06 17:52:00,
2013-02-06 12:01:00,32.0,18.0,30.18,SE,137,4.0,6.0,56,0.00,,,0.00,,2013-02-06 18:01:00,
2013-02-06 12:11:00,32.0,19.0,30.16,SE,133,4.0,8.0,57,0.00,,,0.00,,2013-02-06 18:11:00,
2013-02-06 12:23:00,32.0,19.0,30.16,SE,133,4.0,8.0,57,0.00,,,0.00,,2013-02-06 18:23:00,
2013-02-06 12:32:00,35.0,20.0,30.17,SE,146,2.0,7.0,53,0.00,,,0.00,,2013-02-06 18:32:00,
2013-02-06 13:01:00,35.0,20.0,30.15,SSE,161,5.0,9.0,54,0.00,,,0.00,,2013-02-06 19:01:00,
2013-02-06 13:21:00,34.0,19.0,30.15,SSE,150,6.0,8.0,54,0.00,,,0.00,,2013-02-06 19:21:00,
2013-02-06 13:32:00,33.0,20.0,30.15,SE,146,6.0,9.0,59,0.00,,,0.00,,2013-02-06 19:32:00,
2013-02-06 13:41:00,33.0,20.0,30.15,SE,146,6.0,9.0,59,0.00,,,0.00,,2013-02-06 19:41:00,
2013-02-06 13:52:00,36.0,21.0,30.14,SSE,147,4.0,8.0,54,0.00,,,0.00,,2013-02-06 19:52:00,
2013-02-06 14:01:00,36.0,21.0,30.15,SE,146,5.0,8.0,54,0.00,,,0.00,,2013-02-06 20:01:00,
2013-02-06 14:11:00,35.0,22.0,30.14,SE,143,2.0,8.0,58,0.00,,,0.00,,2013-02-06 20:11:00,
2013-02-06 14:21:00,35.0,22.0,30.14,SE,143,2.0,8.0,58,0.00,,,0.00,,2013-02-06 20:21:00,
2013-02-06 14:31:00,34.0,22.0,30.13,SSE,160,2.0,8.0,62,0.00,,,0.00,,2013-02-06 20:31:00,
2013-02-06 14:41:00,34.0,22.0,30.13,SSE,160,2.0,8.0,62,0.00,,,0.00,,2013-02-06 20:41:00,
2013-02-06 14:52:00,34.0,22.0,30.13,SSE,160,2.0,8.0,62,0.00,,,0.00,,2013-02-06 20:52:00,
2013-02-06 15:01:00,34.0,23.0,30.14,SSW,192,4.0,13.0,63,0.00,,,0.00,,2013-02-06 21:01:00,
2013-02-06 15:11:00,34.0,23.0,30.14,SSW,192,4.0,13.0,63,0.00,,,0.00,,2013-02-06 21:11:00,
2013-02-06 15:21:00,33.0,23.0,30.13,South,182,4.0,9.0,66,0.00,,,0.00,,2013-02-06 21:21:00,
2013-02-06 15:32:00,32.0,22.0,30.13,South,191,4.0,8.0,67,0.00,,,0.00,,2013-02-06 21:32:00,
2013-02-06 15:42:00,32.0,22.0,30.13,South,191,4.0,8.0,67,0.00,,,0.00,,2013-02-06 21:42:00,
2013-02-06 15:52:00,32.0,23.0,30.14,SSW,199,3.0,8.0,68,0.00,,,0.00,,2013-02-06 21:52:00,
2013-02-06 16:01:00,32.0,23.0,30.13,South,177,2.0,8.0,68,0.00,,,0.00,,2013-02-06 22:01:00,
2013-02-06 16:11:00,32.0,23.0,30.13,South,177,2.0,8.0,68,0.00,,,0.00,,2013-02-06 22:11:00,
2013-02-06 16:21:00,32.0,23.0,30.13,SSW,213,3.0,9.0,68,0.00,,,0.00,,2013-02-06 22:21:00,
2013-02-06 16:31:00,32.0,23.0,30.14,South,175,4.0,8.0,69,0.00,,,0.00,,2013-02-06 22:31:00,
2013-02-06 16:41:00,32.0,23.0,30.14,South,175,4.0,8.0,69,0.00,,,0.00,,2013-02-06 22:41:00,
2013-02-06 16:51:00,31.0,23.0,30.12,SSE,164,2.0,6.0,71,0.00,,,0.00,,2013-02-06 22:51:00,
2013-02-06 17:01:00,31.0,23.0,30.12,SSE,164,2.0,6.0,71,0.00,,,0.00,,2013-02-06 23:01:00,
2013-02-06 17:11:00,31.0,23.0,30.12,SSE,164,2.0,6.0,71,0.00,,,0.00,,2013-02-06 23:11:00,
2013-02-06 17:21:00,31.0,23.0,30.12,SE,143,3.0,5.0,72,0.00,,,0.00,,2013-02-06 23:21:00,
2013-02-06 17:31:00,29.0,22.0,30.11,North,9,0.0,2.0,74,0.00,,,0.00,,2013-02-06 23:31:00,
2013-02-06 17:42:00,29.0,22.0,30.11,North,9,0.0,2.0,74,0.00,,,0.00,,2013-02-06 23:42:00,
2013-02-06 17:52:00,29.0,22.0,30.11,North,351,0.0,2.0,75,0.00,,,0.00,,2013-02-06 23:52:00,
2013-02-06 18:01:00,29.0,22.0,30.11,NNW,341,0.0,2.0,75,0.00,,,0.00,,2013-02-07 00:01:00,
2013-02-06 18:11:00,29.0,22.0,30.11,NNW,341,0.0,2.0,75,0.00,,,0.00,,2013-02-07 00:11:00,
2013-02-06 18:21:00,28.0,22.0,30.10,SE,129,2.0,3.0,77,0.00,,,0.00,,2013-02-07 00:21:00,
2013-02-06 18:31:00,28.0,22.0,30.10,SE,129,2.0,3.0,77,0.00,,,0.00,,2013-02-07 00:31:00,
2013-02-06 18:41:00,28.0,22.0,30.10,SE,129,2.0,3.0,77,0.00,,,0.00,,2013-02-07 00:41:00,
2013-02-06 18:52:00,27.0,21.0,30.10,ESE,122,2.0,4.0,79,0.00,,,0.00,,2013-02-07 00:52:00,
2013-02-06 19:01:00,28.0,23.0,30.09,SE,130,4.0,5.0,81,0.00,,,0.00,,2013-02-07 01:01:00,
2013-02-06 19:11:00,28.0,23.0,30.09,SE,130,4.0,5.0,81,0.00,,,0.00,,2013-02-07 01:11:00,
2013-02-06 19:21:00,28.0,23.0,30.09,SE,134,2.0,5.0,82,0.00,,,0.00,,2013-02-07 01:21:00,
2013-02-06 19:31:00,28.0,23.0,30.09,SE,134,2.0,5.0,82,0.00,,,0.00,,2013-02-07 01:31:00,
2013-02-06 19:41:00,28.0,23.0,30.09,SE,134,2.0,5.0,82,0.00,,,0.00,,2013-02-07 01:41:00,
2013-02-06 19:52:00,29.0,25.0,30.08,ESE,112,1.0,5.0,83,0.00,,,0.00,,2013-02-07 01:52:00,
2013-02-06 20:01:00,29.0,25.0,30.10,SE,142,2.0,6.0,83,0.00,,,0.00,,2013-02-07 02:01:00,
2013-02-06 20:11:00,29.0,25.0,30.10,SE,142,2.0,6.0,83,0.00,,,0.00,,2013-02-07 02:11:00,
2013-02-06 20:21:00,30.0,25.0,30.10,SSE,156,0.0,4.0,82,0.00,,,0.00,,2013-02-07 02:21:00,
2013-02-06 20:31:00,30.0,25.0,30.10,SSE,156,0.0,4.0,82,0.00,,,0.00,,2013-02-07 02:31:00,
2013-02-06 20:41:00,30.0,25.0,30.10,SSE,156,0.0,4.0,82,0.00,,,0.00,,2013-02-07 02:41:00,
2013-02-06 20:52:00,30.0,25.0,30.10,SSE,156,0.0,4.0,82,0.00,,,0.00,,2013-02-07 02:52:00,
2013-02-06 21:02:00,29.0,25.0,30.09,NW,326,0.0,3.0,84,0.00,,,0.00,,2013-02-07 03:02:00,
2013-02-06 21:11:00,30.0,26.0,30.09,South,176,1.0,4.0,84,0.00,,,0.00,,2013-02-07 03:11:00,
2013-02-06 21:21:00,30.0,26.0,30.09,South,176,1.0,4.0,84,0.00,,,0.00,,2013-02-07 03:21:00,
2013-02-06 21:31:00,31.0,27.0,30.08,SE,140,5.0,9.0,84,0.00,,,0.00,,2013-02-07 03:31:00,
2013-02-06 21:41:00,31.0,27.0,30.08,SE,140,5.0,9.0,84,0.00,,,0.00,,2013-02-07 03:41:00,
2013-02-06 21:52:00,32.0,28.0,30.07,SE,135,4.0,8.0,84,0.00,,,0.00,,2013-02-07 03:52:00,
2013-02-06 22:01:00,32.0,28.0,30.06,SE,135,7.0,8.0,85,0.00,,,0.00,,2013-02-07 04:01:00,
2013-02-06 22:11:00,32.0,28.0,30.06,SE,135,7.0,8.0,85,0.00,,,0.00,,2013-02-07 04:11:00,
2013-02-06 22:22:00,32.0,28.0,30.06,SE,135,5.0,10.0,85,0.00,,,0.00,,2013-02-07 04:22:00,
2013-02-06 22:31:00,32.0,28.0,30.06,SE,131,4.0,8.0,85,0.00,,,0.00,,2013-02-07 04:31:00,
2013-02-06 22:41:00,32.0,28.0,30.06,SE,131,4.0,8.0,85,0.00,,,0.00,,2013-02-07 04:41:00,
2013-02-06 22:52:00,32.0,28.0,30.06,SE,131,4.0,8.0,85,0.00,,,0.00,,2013-02-07 04:52:00,
2013-02-06 23:02:00,33.0,29.0,30.07,SE,138,7.0,9.0,85,0.00,,,0.00,,2013-02-07 05:02:00,
2013-02-06 23:11:00,33.0,29.0,30.07,SE,138,7.0,9.0,85,0.00,,,0.00,,2013-02-07 05:11:00,
2013-02-06 23:21:00,33.0,29.0,30.06,SE,144,8.0,9.0,85,0.00,,,0.00,,2013-02-07 05:21:00,
2013-02-06 23:32:00,33.0,29.0,30.06,SE,135,8.0,9.0,85,0.00,,,0.00,,2013-02-07 05:32:00,
2013-02-06 23:42:00,33.0,29.0,30.06,SE,135,8.0,9.0,85,0.00,,,0.00,,2013-02-07 05:42:00,
2013-02-06 23:52:00,33.0,29.0,30.05,SSE,150,8.0,14.0,85,0.00,,,0.00,,2013-02-07 05:52:00,